Time,TemperatureF,DewpointF,PressureIn,WindDirection,WindDirectionDegrees,WindSpeedMPH,WindSpeedGustMPH,Humidity,HourlyPrecipIn,Conditions,Clouds,dailyrainin,SoftwareType,DateUTC
2013-02-20 00:00:00,-5.2,-10.0,30.31,West,275,0.0,0.0,79,0.00,,CLR,0.00,VWS V14.01,2013-02-20 06:00:00,
2013-02-20 00:06:00,-5.3,-10.1,30.32,West,275,0.0,1.0,79,0.00,,CLR,0.00,VWS V14.01,2013-02-20 06:06:00,
2013-02-20 00:11:00,-5.4,-10.2,30.32,West,275,0.0,2.0,79,0.00,,CLR,0.00,VWS V14.01,2013-02-20 06:11:00,
2013-02-20 00:16:00,-5.5,-10.3,30.32,West,275,0.0,0.0,79,0.00,,CLR,0.00,VWS V14.01,2013-02-20 06:16:00,
2013-02-20 00:22:00,-5.8,-10.6,30.33,West,275,1.0,1.0,79,0.00,,CLR,0.00,VWS V14.01,2013-02-20 06:22:00,
2013-02-20 00:27:00,-6.1,-10.9,30.33,West,275,0.0,1.0,79,0.00,,CLR,0.00,VWS V14.01,2013-02-20 06:27:00,
2013-02-20 00:33:00,-6.3,-11.1,30.33,West,275,0.0,0.0,79,0.00,,CLR,0.00,VWS V14.01,2013-02-20 06:33:00,
2013-02-20 00:38:00,-6.4,-11.2,30.33,West,275,0.0,3.0,79,0.00,,CLR,0.00,VWS V14.01,2013-02-20 06:38:00,
2013-02-20 00:43:00,-6.3,-10.9,30.33,West,275,0.0,1.0,80,0.00,,CLR,0.00,VWS V14.01,2013-02-20 06:43:00,
2013-02-20 00:48:00,-6.4,-10.9,30.33,West,275,0.0,0.0,80,0.00,,CLR,0.00,VWS V14.01,2013-02-20 06:48:00,
2013-02-20 00:53:00,-6.3,-10.9,30.33,West,275,0.0,0.0,80,0.00,,CLR,0.00,VWS V14.01,2013-02-20 06:53:00,
2013-02-20 00:58:00,-6.4,-10.9,30.33,West,275,0.0,0.0,80,0.00,,CLR,0.00,VWS V14.01,2013-02-20 06:58:00,
2013-02-20 01:03:00,-6.4,-10.9,30.33,West,276,0.0,0.0,80,0.00,,CLR,0.00,VWS V14.01,2013-02-20 07:03:00,
2013-02-20 01:08:00,-6.4,-10.9,30.34,West,275,0.0,0.0,80,0.00,,CLR,0.00,VWS V14.01,2013-02-20 07:08:00,
2013-02-20 01:14:00,-6.4,-10.9,30.34,West,275,1.0,3.0,80,0.00,,CLR,0.00,VWS V14.01,2013-02-20 07:14:00,
2013-02-20 01:19:00,-6.4,-10.9,30.34,WNW,286,0.0,1.0,80,0.00,,CLR,0.00,VWS V14.01,2013-02-20 07:19:00,
2013-02-20 01:25:00,-6.5,-11.0,30.34,West,270,0.0,4.0,80,0.00,,CLR,0.00,VWS V14.01,2013-02-20 07:25:00,
2013-02-20 01:30:00,-6.5,-11.0,30.34,West,274,0.0,0.0,80,0.00,,CLR,0.00,VWS V14.01,2013-02-20 07:30:00,
2013-02-20 01:35:00,-6.5,-11.0,30.34,West,274,0.0,0.0,80,0.00,,CLR,0.00,VWS V14.01,2013-02-20 07:35:00,
2013-02-20 01:40:00,-6.6,-11.1,30.34,West,274,0.0,2.0,80,0.00,,CLR,0.00,VWS V14.01,2013-02-20 07:40:00,
2013-02-20 01:45:00,-6.6,-11.1,30.34,West,274,0.0,1.0,80,0.00,,CLR,0.00,VWS V14.01,2013-02-20 07:45:00,
2013-02-20 01:51:00,-6.7,-11.2,30.35,West,275,2.0,2.0,80,0.00,,CLR,0.00,VWS V14.01,2013-02-20 07:51:00,
2013-02-20 01:56:00,-6.8,-11.3,30.35,West,274,2.0,2.0,80,0.00,,CLR,0.00,VWS V14.01,2013-02-20 07:56:00,
2013-02-20 02:01:00,-7.0,-11.5,30.35,West,274,1.0,2.0,80,0.00,,CLR,0.00,VWS V14.01,2013-02-20 08:01:00,
2013-02-20 02:06:00,-7.2,-11.7,30.35,West,275,0.0,1.0,80,0.00,,CLR,0.00,VWS V14.01,2013-02-20 08:06:00,
2013-02-20 02:11:00,-7.3,-11.8,30.35,West,274,2.0,2.0,80,0.00,,CLR,0.00,VWS V14.01,2013-02-20 08:11:00,
2013-02-20 02:16:00,-7.5,-12.0,30.36,West,274,1.0,2.0,80,0.00,,CLR,0.00,VWS V14.01,2013-02-20 08:16:00,
2013-02-20 02:21:00,-7.7,-12.2,30.36,West,275,1.0,1.0,80,0.00,,CLR,0.00,VWS V14.01,2013-02-20 08:21:00,
2013-02-20 02:26:00,-8.0,-12.5,30.36,West,274,0.0,1.0,80,0.00,,CLR,0.00,VWS V14.01,2013-02-20 08:26:00,
2013-02-20 02:31:00,-8.2,-12.7,30.36,West,274,1.0,2.0,80,0.00,,CLR,0.00,VWS V14.01,2013-02-20 08:31:00,
2013-02-20 02:36:00,-8.5,-13.0,30.36,West,274,0.0,0.0,80,0.00,,CLR,0.00,VWS V14.01,2013-02-20 08:36:00,
2013-02-20 02:41:00,-8.5,-12.8,30.36,West,274,1.0,2.0,81,0.00,,CLR,0.00,VWS V14.01,2013-02-20 08:41:00,
2013-02-20 02:46:00,-8.7,-12.9,30.36,West,274,1.0,2.0,81,0.00,,CLR,0.00,VWS V14.01,2013-02-20 08:46:00,
2013-02-20 02:52:00,-8.8,-13.0,30.36,West,274,0.0,1.0,81,0.00,,CLR,0.00,VWS V14.01,2013-02-20 08:52:00,
2013-02-20 02:57:00,-8.8,-13.0,30.36,West,275,1.0,1.0,81,0.00,,CLR,0.00,VWS V14.01,2013-02-20 08:57:00,
2013-02-20 03:02:00,-8.8,-12.8,30.37,West,274,0.0,1.0,82,0.00,,CLR,0.00,VWS V14.01,2013-02-20 09:02:00,
2013-02-20 03:08:00,-8.8,-12.8,30.36,West,275,0.0,2.0,82,0.00,,CLR,0.00,VWS V14.01,2013-02-20 09:08:00,
2013-02-20 03:14:00,-8.9,-13.1,30.37,West,274,1.0,1.0,81,0.00,,CLR,0.00,VWS V14.01,2013-02-20 09:14:00,
2013-02-20 03:19:00,-8.9,-13.1,30.37,West,274,0.0,1.0,81,0.00,,CLR,0.00,VWS V14.01,2013-02-20 09:19:00,
2013-02-20 03:24:00,-8.9,-12.9,30.36,West,274,0.0,1.0,82,0.00,,CLR,0.00,VWS V14.01,2013-02-20 09:24:00,
2013-02-20 03:29:00,-8.8,-12.8,30.36,West,274,0.0,2.0,82,0.00,,CLR,0.00,VWS V14.01,2013-02-20 09:29:00,
2013-02-20 03:34:00,-8.8,-12.8,30.36,West,274,0.0,1.0,82,0.00,,CLR,0.00,VWS V14.01,2013-02-20 09:34:00,
2013-02-20 03:39:00,-8.6,-12.6,30.37,West,275,0.0,0.0,82,0.00,,CLR,0.00,VWS V14.01,2013-02-20 09:39:00,
2013-02-20 03:44:00,-8.6,-12.6,30.36,West,274,0.0,0.0,82,0.00,,CLR,0.00,VWS V14.01,2013-02-20 09:44:00,
2013-02-20 03:49:00,-8.6,-12.6,30.36,WNW,283,0.0,0.0,82,0.00,,CLR,0.00,VWS V14.01,2013-02-20 09:49:00,
2013-02-20 03:54:00,-8.6,-12.6,30.36,WNW,283,0.0,0.0,82,0.00,,CLR,0.00,VWS V14.01,2013-02-20 09:54:00,
2013-02-20 04:01:00,-8.6,-12.6,30.37,WNW,283,0.0,1.0,82,0.00,,CLR,0.00,VWS V14.01,2013-02-20 10:01:00,
2013-02-20 04:06:00,-8.6,-12.6,30.37,WNW,283,0.0,0.0,82,0.00,,CLR,0.00,VWS V14.01,2013-02-20 10:06:00,
2013-02-20 04:11:00,-8.6,-12.6,30.37,WNW,283,0.0,0.0,82,0.00,,CLR,0.00,VWS V14.01,2013-02-20 10:11:00,
2013-02-20 04:17:00,-8.5,-12.5,30.37,WNW,283,0.0,0.0,82,0.00,,CLR,0.00,VWS V14.01,2013-02-20 10:17:00,
2013-02-20 04:23:00,-8.5,-12.5,30.37,West,273,0.0,1.0,82,0.00,,CLR,0.00,VWS V14.01,2013-02-20 10:23:00,
2013-02-20 04:28:00,-8.5,-12.5,30.37,West,273,0.0,1.0,82,0.00,,CLR,0.00,VWS V14.01,2013-02-20 10:28:00,
2013-02-20 04:34:00,-8.5,-12.5,30.37,West,273,0.0,0.0,82,0.00,,CLR,0.00,VWS V14.01,2013-02-20 10:34:00,
2013-02-20 04:39:00,-8.5,-12.5,30.37,West,273,0.0,0.0,82,0.00,,CLR,0.00,VWS V14.01,2013-02-20 10:39:00,
2013-02-20 04:44:00,-8.6,-12.6,30.37,West,273,0.0,1.0,82,0.00,,CLR,0.00,VWS V14.01,2013-02-20 10:44:00,
2013-02-20 04:50:00,-8.8,-12.8,30.37,West,273,0.0,0.0,82,0.00,,CLR,0.00,VWS V14.01,2013-02-20 10:50:00,
2013-02-20 04:55:00,-9.0,-13.2,30.38,West,273,0.0,0.0,81,0.00,,CLR,0.00,VWS V14.01,2013-02-20 10:55:00,
2013-02-20 05:01:00,-9.2,-13.4,30.37,West,273,0.0,0.0,81,0.00,,CLR,0.00,VWS V14.01,2013-02-20 11:01:00,
2013-02-20 05:06:00,-9.3,-13.3,30.37,West,273,0.0,0.0,82,0.00,,CLR,0.00,VWS V14.01,2013-02-20 11:06:00,
2013-02-20 05:11:00,-9.2,-13.2,30.37,West,273,0.0,0.0,82,0.00,,CLR,0.00,VWS V14.01,2013-02-20 11:11:00,
2013-02-20 05:17:00,-9.2,-13.2,30.37,West,273,0.0,0.0,82,0.00,,CLR,0.00,VWS V14.01,2013-02-20 11:17:00,
2013-02-20 05:22:00,-9.3,-13.3,30.37,West,273,0.0,1.0,82,0.00,,CLR,0.00,VWS V14.01,2013-02-20 11:22:00,
2013-02-20 05:27:00,-9.3,-13.3,30.37,West,273,0.0,1.0,82,0.00,,CLR,0.00,VWS V14.01,2013-02-20 11:27:00,
2013-02-20 05:32:00,-9.4,-13.4,30.37,West,273,0.0,0.0,82,0.00,,CLR,0.00,VWS V14.01,2013-02-20 11:32:00,
2013-02-20 05:38:00,-9.4,-13.4,30.37,West,273,0.0,0.0,82,0.00,,CLR,0.00,VWS V14.01,2013-02-20 11:38:00,
2013-02-20 05:43:00,-9.4,-13.4,30.37,West,273,0.0,0.0,82,0.00,,CLR,0.00,VWS V14.01,2013-02-20 11:43:00,
2013-02-20 05:48:00,-9.5,-13.5,30.37,West,273,0.0,0.0,82,0.00,,CLR,0.00,VWS V14.01,2013-02-20 11:48:00,
2013-02-20 05:53:00,-9.5,-13.5,30.37,West,273,0.0,0.0,82,0.00,,CLR,0.00,VWS V14.01,2013-02-20 11:53:00,
2013-02-20 05:58:00,-9.6,-13.6,30.38,West,273,0.0,0.0,82,0.00,,CLR,0.00,VWS V14.01,2013-02-20 11:58:00,
2013-02-20 06:03:00,-9.7,-13.7,30.38,West,273,0.0,0.0,82,0.00,,CLR,0.00,VWS V14.01,2013-02-20 12:03:00,
2013-02-20 06:08:00,-9.8,-13.8,30.38,West,273,0.0,0.0,82,0.00,,CLR,0.00,VWS V14.01,2013-02-20 12:08:00,
2013-02-20 06:14:00,-9.9,-13.9,30.38,West,273,0.0,0.0,82,0.00,,CLR,0.00,VWS V14.01,2013-02-20 12:14:00,
2013-02-20 06:19:00,-10.0,-14.0,30.38,West,273,0.0,0.0,82,0.00,,CLR,0.00,VWS V14.01,2013-02-20 12:19:00,
2013-02-20 06:25:00,-10.0,-14.0,30.39,West,273,0.0,0.0,82,0.00,,CLR,0.00,VWS V14.01,2013-02-20 12:25:00,
2013-02-20 06:30:00,-10.1,-14.1,30.39,West,273,0.0,1.0,82,0.00,,CLR,0.00,VWS V14.01,2013-02-20 12:30:00,
2013-02-20 06:36:00,-10.2,-14.2,30.39,West,273,0.0,0.0,82,0.00,,CLR,0.00,VWS V14.01,2013-02-20 12:36:00,
2013-02-20 06:41:00,-10.2,-14.2,30.39,West,273,0.0,0.0,82,0.00,,CLR,0.00,VWS V14.01,2013-02-20 12:41:00,
2013-02-20 06:46:00,-10.1,-13.8,30.38,NW,311,1.0,1.0,83,0.00,,CLR,0.00,VWS V14.01,2013-02-20 12:46:00,
2013-02-20 06:51:00,-10.0,-13.7,30.38,NW,322,0.0,1.0,83,0.00,,CLR,0.00,VWS V14.01,2013-02-20 12:51:00,
2013-02-20 06:56:00,-9.7,-13.4,30.39,NW,322,0.0,0.0,83,0.00,,CLR,0.00,VWS V14.01,2013-02-20 12:56:00,
2013-02-20 07:02:00,-9.5,-13.0,30.39,NW,322,0.0,0.0,84,0.00,,CLR,0.00,VWS V14.01,2013-02-20 13:02:00,
2013-02-20 07:07:00,-9.5,-13.2,30.39,NW,322,0.0,0.0,83,0.00,,CLR,0.00,VWS V14.01,2013-02-20 13:07:00,
2013-02-20 07:12:00,-9.5,-13.2,30.39,NW,322,0.0,0.0,83,0.00,,CLR,0.00,VWS V14.01,2013-02-20 13:12:00,
2013-02-20 07:17:00,-9.6,-13.3,30.38,NW,322,0.0,0.0,83,0.00,,CLR,0.00,VWS V14.01,2013-02-20 13:17:00,
2013-02-20 07:23:00,-9.7,-13.4,30.39,NW,322,0.0,0.0,83,0.00,,CLR,0.00,VWS V14.01,2013-02-20 13:23:00,
2013-02-20 07:28:00,-9.8,-13.5,30.39,NW,322,0.0,0.0,83,0.00,,CLR,0.00,VWS V14.01,2013-02-20 13:28:00,
2013-02-20 07:34:00,-9.6,-13.3,30.39,WNW,302,0.0,0.0,83,0.00,,CLR,0.00,VWS V14.01,2013-02-20 13:34:00,
2013-02-20 07:39:00,-9.2,-12.7,30.39,WNW,302,0.0,0.0,84,0.00,,CLR,0.00,VWS V14.01,2013-02-20 13:39:00,
2013-02-20 07:44:00,-8.6,-11.9,30.39,NW,315,0.0,0.0,85,0.00,,CLR,0.00,VWS V14.01,2013-02-20 13:44:00,
2013-02-20 07:49:00,-8.3,-11.6,30.39,NW,315,0.0,1.0,85,0.00,,CLR,0.00,VWS V14.01,2013-02-20 13:49:00,
2013-02-20 07:54:00,-8.0,-11.3,30.39,NW,315,0.0,0.0,85,0.00,,CLR,0.00,VWS V14.01,2013-02-20 13:54:00,
2013-02-20 07:59:00,-7.6,-10.9,30.39,WNW,299,0.0,0.0,85,0.00,,CLR,0.00,VWS V14.01,2013-02-20 13:59:00,
2013-02-20 08:04:00,-7.2,-10.5,30.39,NW,310,0.0,0.0,85,0.00,,CLR,0.00,VWS V14.01,2013-02-20 14:04:00,
2013-02-20 08:09:00,-6.7,-10.0,30.39,NW,310,0.0,0.0,85,0.00,,CLR,0.00,VWS V14.01,2013-02-20 14:09:00,
2013-02-20 08:14:00,-6.2,-9.5,30.39,NNW,329,0.0,0.0,85,0.00,,CLR,0.00,VWS V14.01,2013-02-20 14:14:00,
2013-02-20 08:19:00,-5.7,-9.0,30.39,NNW,340,0.0,1.0,85,0.00,,CLR,0.00,VWS V14.01,2013-02-20 14:19:00,
2013-02-20 08:25:00,-5.3,-8.9,30.39,NNW,340,0.0,0.0,84,0.00,,CLR,0.00,VWS V14.01,2013-02-20 14:25:00,
2013-02-20 08:30:00,-5.0,-8.6,30.39,NNW,340,0.0,0.0,84,0.00,,CLR,0.00,VWS V14.01,2013-02-20 14:30:00,
2013-02-20 08:36:00,-4.6,-8.4,30.38,NNW,340,0.0,1.0,83,0.00,,CLR,0.00,VWS V14.01,2013-02-20 14:36:00,
2013-02-20 08:41:00,-4.3,-8.1,30.38,NNW,340,0.0,0.0,83,0.00,,CLR,0.00,VWS V14.01,2013-02-20 14:41:00,
2013-02-20 08:47:00,-3.8,-7.7,30.38,NNW,346,0.0,0.0,83,0.00,,CLR,0.00,VWS V14.01,2013-02-20 14:47:00,
2013-02-20 08:52:00,-3.2,-7.1,30.38,NNW,346,0.0,0.0,83,0.00,,CLR,0.00,VWS V14.01,2013-02-20 14:52:00,
2013-02-20 08:57:00,-2.5,-6.4,30.39,North,355,0.0,2.0,83,0.00,,CLR,0.00,VWS V14.01,2013-02-20 14:57:00,
2013-02-20 09:02:00,-1.8,-5.7,30.38,NE,34,0.0,0.0,83,0.00,,CLR,0.00,VWS V14.01,2013-02-20 15:02:00,
2013-02-20 09:08:00,-0.9,-5.1,30.39,NNE,30,2.0,3.0,82,0.00,,CLR,0.00,VWS V14.01,2013-02-20 15:08:00,
2013-02-20 09:13:00,-0.4,-4.8,30.38,NNE,30,0.0,0.0,81,0.00,,CLR,0.00,VWS V14.01,2013-02-20 15:13:00,
2013-02-20 09:18:00,0.1,-4.3,30.39,NNE,30,0.0,2.0,81,0.00,,CLR,0.00,VWS V14.01,2013-02-20 15:18:00,
2013-02-20 09:24:00,0.5,-4.2,30.39,North,351,0.0,1.0,80,0.00,,CLR,0.00,VWS V14.01,2013-02-20 15:24:00,
2013-02-20 09:30:00,0.9,-4.1,30.39,North,351,0.0,0.0,79,0.00,,CLR,0.00,VWS V14.01,2013-02-20 15:30:00,
2013-02-20 09:35:00,1.2,-3.8,30.39,North,351,0.0,0.0,79,0.00,,CLR,0.00,VWS V14.01,2013-02-20 15:35:00,
2013-02-20 09:40:00,1.5,-3.5,30.39,North,351,0.0,0.0,79,0.00,,CLR,0.00,VWS V14.01,2013-02-20 15:40:00,
2013-02-20 09:46:00,2.0,-3.3,30.39,North,351,0.0,0.0,78,0.00,,CLR,0.00,VWS V14.01,2013-02-20 15:46:00,
2013-02-20 09:51:00,2.2,-3.1,30.39,North,351,0.0,0.0,78,0.00,,CLR,0.00,VWS V14.01,2013-02-20 15:51:00,
2013-02-20 09:57:00,2.5,-2.8,30.39,North,351,0.0,0.0,78,0.00,,CLR,0.00,VWS V14.01,2013-02-20 15:57:00,
2013-02-20 10:02:00,2.7,-2.9,30.39,NNE,13,0.0,1.0,77,0.00,,CLR,0.00,VWS V14.01,2013-02-20 16:02:00,
2013-02-20 10:08:00,2.9,-2.4,30.39,NNE,13,0.0,0.0,78,0.00,,CLR,0.00,VWS V14.01,2013-02-20 16:08:00,
2013-02-20 10:13:00,3.2,-2.4,30.39,NNE,13,0.0,0.0,77,0.00,,CLR,0.00,VWS V14.01,2013-02-20 16:13:00,
2013-02-20 10:19:00,3.6,-2.0,30.39,NNE,13,0.0,0.0,77,0.00,,CLR,0.00,VWS V14.01,2013-02-20 16:19:00,
2013-02-20 10:24:00,3.8,-2.1,30.39,NNE,13,1.0,1.0,76,0.00,,CLR,0.00,VWS V14.01,2013-02-20 16:24:00,
2013-02-20 10:29:00,4.2,-1.7,30.39,NNE,13,0.0,0.0,76,0.00,,CLR,0.00,VWS V14.01,2013-02-20 16:29:00,
2013-02-20 10:34:00,4.5,-1.7,30.39,NNE,15,0.0,0.0,75,0.00,,CLR,0.00,VWS V14.01,2013-02-20 16:34:00,
2013-02-20 10:39:00,4.7,-1.5,30.39,East,81,0.0,0.0,75,0.00,,CLR,0.00,VWS V14.01,2013-02-20 16:39:00,
2013-02-20 10:44:00,5.0,-1.2,30.39,East,81,0.0,0.0,75,0.00,,CLR,0.00,VWS V14.01,2013-02-20 16:44:00,
2013-02-20 10:50:00,5.7,-0.5,30.39,East,81,0.0,1.0,75,0.00,,CLR,0.00,VWS V14.01,2013-02-20 16:50:00,
2013-02-20 10:55:00,6.2,-0.3,30.39,East,81,0.0,1.0,74,0.00,,CLR,0.00,VWS V14.01,2013-02-20 16:55:00,
2013-02-20 11:01:00,6.9,-0.2,30.40,East,81,3.0,3.0,72,0.00,,CLR,0.00,VWS V14.01,2013-02-20 17:01:00,
2013-02-20 11:07:00,7.4,0.0,30.40,East,81,0.0,0.0,71,0.00,,CLR,0.00,VWS V14.01,2013-02-20 17:07:00,
2013-02-20 11:12:00,8.1,0.4,30.39,East,81,0.0,0.0,70,0.00,,CLR,0.00,VWS V14.01,2013-02-20 17:12:00,
2013-02-20 11:18:00,8.9,0.8,30.39,East,81,0.0,0.0,69,0.00,,CLR,0.00,VWS V14.01,2013-02-20 17:18:00,
2013-02-20 11:23:00,9.7,1.3,30.40,East,81,0.0,1.0,68,0.00,,CLR,0.00,VWS V14.01,2013-02-20 17:23:00,
2013-02-20 11:28:00,9.9,0.8,30.40,East,81,0.0,2.0,66,0.00,,CLR,0.00,VWS V14.01,2013-02-20 17:28:00,
2013-02-20 11:34:00,9.6,0.5,30.40,East,82,0.0,0.0,66,0.00,,CLR,0.00,VWS V14.01,2013-02-20 17:34:00,
2013-02-20 11:39:00,10.1,1.0,30.40,East,82,0.0,3.0,66,0.00,,CLR,0.00,VWS V14.01,2013-02-20 17:39:00,
2013-02-20 11:45:00,10.7,0.9,30.40,East,82,0.0,0.0,64,0.00,,CLR,0.00,VWS V14.01,2013-02-20 17:45:00,
2013-02-20 11:50:00,10.8,1.0,30.39,East,82,0.0,0.0,64,0.00,,CLR,0.00,VWS V14.01,2013-02-20 17:50:00,
2013-02-20 11:55:00,10.8,1.0,30.40,East,82,0.0,0.0,64,0.00,,CLR,0.00,VWS V14.01,2013-02-20 17:55:00,
2013-02-20 12:00:00,11.4,1.9,30.40,East,82,0.0,0.0,65,0.00,,CLR,0.00,VWS V14.01,2013-02-20 18:00:00,
2013-02-20 12:05:00,11.8,1.6,30.40,East,82,0.0,3.0,63,0.00,,CLR,0.00,VWS V14.01,2013-02-20 18:05:00,
2013-02-20 12:10:00,11.4,1.6,30.39,East,82,0.0,0.0,64,0.00,,CLR,0.00,VWS V14.01,2013-02-20 18:10:00,
2013-02-20 12:16:00,11.4,1.6,30.39,East,82,0.0,2.0,64,0.00,,CLR,0.00,VWS V14.01,2013-02-20 18:16:00,
2013-02-20 12:21:00,11.4,1.3,30.39,East,82,0.0,0.0,63,0.00,,CLR,0.00,VWS V14.01,2013-02-20 18:21:00,
2013-02-20 12:26:00,11.3,1.8,30.39,East,82,0.0,1.0,65,0.00,,CLR,0.00,VWS V14.01,2013-02-20 18:26:00,
2013-02-20 12:32:00,11.8,2.0,30.38,East,82,0.0,1.0,64,0.00,,CLR,0.00,VWS V14.01,2013-02-20 18:32:00,
2013-02-20 12:37:00,12.0,2.5,30.38,East,82,0.0,0.0,65,0.00,,CLR,0.00,VWS V14.01,2013-02-20 18:37:00,
2013-02-20 12:42:00,12.5,3.3,30.38,NE,51,0.0,2.0,66,0.00,,CLR,0.00,VWS V14.01,2013-02-20 18:42:00,
2013-02-20 12:47:00,13.7,4.1,30.39,NE,51,0.0,0.0,65,0.00,,CLR,0.00,VWS V14.01,2013-02-20 18:47:00,
2013-02-20 12:53:00,13.5,3.3,30.39,WNW,295,3.0,3.0,63,0.00,,CLR,0.00,VWS V14.01,2013-02-20 18:53:00,
2013-02-20 12:58:00,12.5,2.0,30.39,WNW,292,0.0,0.0,62,0.00,,CLR,0.00,VWS V14.01,2013-02-20 18:58:00,
2013-02-20 13:03:00,13.1,4.2,30.39,WNW,292,0.0,1.0,67,0.00,,CLR,0.00,VWS V14.01,2013-02-20 19:03:00,
2013-02-20 13:09:00,13.4,3.2,30.39,West,281,1.0,4.0,63,0.00,,CLR,0.00,VWS V14.01,2013-02-20 19:09:00,
2013-02-20 13:14:00,13.5,3.3,30.39,West,281,0.0,1.0,63,0.00,,CLR,0.00,VWS V14.01,2013-02-20 19:14:00,
2013-02-20 13:20:00,13.5,3.6,30.39,West,281,0.0,0.0,64,0.00,,CLR,0.00,VWS V14.01,2013-02-20 19:20:00,
2013-02-20 13:26:00,14.3,4.4,30.39,West,281,0.0,1.0,64,0.00,,CLR,0.00,VWS V14.01,2013-02-20 19:26:00,
2013-02-20 13:31:00,14.9,4.6,30.39,West,281,2.0,2.0,63,0.00,,CLR,0.00,VWS V14.01,2013-02-20 19:31:00,
2013-02-20 13:37:00,15.6,4.6,30.39,West,281,0.0,0.0,61,0.00,,CLR,0.00,VWS V14.01,2013-02-20 19:37:00,
2013-02-20 13:43:00,16.1,4.7,30.39,West,281,0.0,4.0,60,0.00,,CLR,0.00,VWS V14.01,2013-02-20 19:43:00,
2013-02-20 13:49:00,15.3,4.3,30.39,West,281,0.0,2.0,61,0.00,,CLR,0.00,VWS V14.01,2013-02-20 19:49:00,
2013-02-20 13:54:00,15.4,4.4,30.39,West,281,0.0,5.0,61,0.00,,CLR,0.00,VWS V14.01,2013-02-20 19:54:00,
2013-02-20 14:00:00,14.8,3.4,30.39,West,275,0.0,4.0,60,0.00,,CLR,0.00,VWS V14.01,2013-02-20 20:00:00,
2013-02-20 14:06:00,13.9,2.6,30.39,West,275,0.0,2.0,60,0.00,,CLR,0.00,VWS V14.01,2013-02-20 20:06:00,
2013-02-20 14:11:00,13.9,3.3,30.39,West,275,0.0,0.0,62,0.00,,CLR,0.00,VWS V14.01,2013-02-20 20:11:00,
2013-02-20 14:17:00,13.4,2.5,30.39,West,275,3.0,3.0,61,0.00,,CLR,0.00,VWS V14.01,2013-02-20 20:17:00,
2013-02-20 14:23:00,13.7,3.8,30.39,West,275,1.0,2.0,64,0.00,,CLR,0.00,VWS V14.01,2013-02-20 20:23:00,
2013-02-20 14:28:00,13.9,4.0,30.39,West,275,2.0,4.0,64,0.00,,CLR,0.00,VWS V14.01,2013-02-20 20:28:00,
2013-02-20 14:34:00,13.6,3.4,30.39,West,275,2.0,4.0,63,0.00,,CLR,0.00,VWS V14.01,2013-02-20 20:34:00,
2013-02-20 14:39:00,13.3,3.1,30.39,West,275,1.0,3.0,63,0.00,,CLR,0.00,VWS V14.01,2013-02-20 20:39:00,
2013-02-20 14:44:00,13.1,3.2,30.39,West,275,0.0,1.0,64,0.00,,CLR,0.00,VWS V14.01,2013-02-20 20:44:00,
2013-02-20 14:49:00,13.2,3.7,30.39,West,275,0.0,0.0,65,0.00,,CLR,0.00,VWS V14.01,2013-02-20 20:49:00,
2013-02-20 14:54:00,13.4,3.2,30.38,West,275,2.0,3.0,63,0.00,,CLR,0.00,VWS V14.01,2013-02-20 20:54:00,
2013-02-20 14:59:00,13.1,3.2,30.38,West,275,0.0,2.0,64,0.00,,CLR,0.00,VWS V14.01,2013-02-20 20:59:00,
2013-02-20 15:04:00,13.2,3.7,30.38,West,275,0.0,0.0,65,0.00,,CLR,0.00,VWS V14.01,2013-02-20 21:04:00,
2013-02-20 15:09:00,13.4,3.5,30.38,West,275,0.0,0.0,64,0.00,,CLR,0.00,VWS V14.01,2013-02-20 21:09:00,
2013-02-20 15:15:00,13.5,3.9,30.38,West,275,2.0,2.0,65,0.00,,CLR,0.00,VWS V14.01,2013-02-20 21:15:00,
2013-02-20 15:20:00,13.7,3.8,30.38,West,275,0.0,1.0,64,0.00,,CLR,0.00,VWS V14.01,2013-02-20 21:20:00,
2013-02-20 15:25:00,13.9,3.6,30.37,West,275,0.0,2.0,63,0.00,,CLR,0.00,VWS V14.01,2013-02-20 21:25:00,
2013-02-20 15:30:00,13.8,3.5,30.37,West,275,1.0,2.0,63,0.00,,CLR,0.00,VWS V14.01,2013-02-20 21:30:00,
2013-02-20 15:35:00,13.9,4.3,30.37,West,275,0.0,0.0,65,0.00,,CLR,0.00,VWS V14.01,2013-02-20 21:35:00,
2013-02-20 15:40:00,14.3,4.7,30.37,West,275,0.0,0.0,65,0.00,,CLR,0.00,VWS V14.01,2013-02-20 21:40:00,
2013-02-20 15:45:00,14.6,4.3,30.37,West,275,0.0,0.0,63,0.00,,CLR,0.00,VWS V14.01,2013-02-20 21:45:00,
2013-02-20 15:50:00,14.8,4.8,30.36,West,275,0.0,0.0,64,0.00,,CLR,0.00,VWS V14.01,2013-02-20 21:50:00,
2013-02-20 15:55:00,14.7,4.1,30.36,West,275,0.0,1.0,62,0.00,,CLR,0.00,VWS V14.01,2013-02-20 21:55:00,
2013-02-20 16:01:00,14.6,4.3,30.36,West,275,0.0,0.0,63,0.00,,CLR,0.00,VWS V14.01,2013-02-20 22:01:00,
2013-02-20 16:07:00,14.6,4.3,30.36,West,275,0.0,0.0,63,0.00,,CLR,0.00,VWS V14.01,2013-02-20 22:07:00,
2013-02-20 16:12:00,14.6,4.7,30.35,West,275,0.0,0.0,64,0.00,,CLR,0.00,VWS V14.01,2013-02-20 22:12:00,
2013-02-20 16:18:00,14.7,4.4,30.35,West,275,0.0,1.0,63,0.00,,CLR,0.00,VWS V14.01,2013-02-20 22:18:00,
2013-02-20 16:23:00,14.7,4.8,30.35,West,275,0.0,0.0,64,0.00,,CLR,0.00,VWS V14.01,2013-02-20 22:23:00,
2013-02-20 16:29:00,15.0,5.4,30.35,West,275,0.0,0.0,65,0.00,,CLR,0.00,VWS V14.01,2013-02-20 22:29:00,
2013-02-20 16:34:00,15.1,5.1,30.35,West,275,0.0,0.0,64,0.00,,CLR,0.00,VWS V14.01,2013-02-20 22:34:00,
2013-02-20 16:39:00,15.2,5.6,30.35,West,275,0.0,0.0,65,0.00,,CLR,0.00,VWS V14.01,2013-02-20 22:39:00,
2013-02-20 16:44:00,15.1,5.1,30.35,West,275,0.0,0.0,64,0.00,,CLR,0.00,VWS V14.01,2013-02-20 22:44:00,
2013-02-20 16:50:00,15.0,5.4,30.35,West,275,0.0,0.0,65,0.00,,CLR,0.00,VWS V14.01,2013-02-20 22:50:00,
2013-02-20 16:56:00,14.8,5.2,30.34,West,275,0.0,0.0,65,0.00,,CLR,0.00,VWS V14.01,2013-02-20 22:56:00,
2013-02-20 17:01:00,14.5,5.2,30.34,West,275,0.0,0.0,66,0.00,,CLR,0.00,VWS V14.01,2013-02-20 23:01:00,
2013-02-20 17:06:00,14.3,5.0,30.35,West,275,1.0,1.0,66,0.00,,CLR,0.00,VWS V14.01,2013-02-20 23:06:00,
2013-02-20 17:11:00,14.0,5.1,30.35,West,275,0.0,0.0,67,0.00,,CLR,0.00,VWS V14.01,2013-02-20 23:11:00,
2013-02-20 17:17:00,13.7,4.8,30.35,West,275,0.0,0.0,67,0.00,,CLR,0.00,VWS V14.01,2013-02-20 23:17:00,
2013-02-20 17:22:00,13.5,4.9,30.35,West,275,0.0,0.0,68,0.00,,CLR,0.00,VWS V14.01,2013-02-20 23:22:00,
2013-02-20 17:27:00,13.1,4.5,30.34,West,275,0.0,0.0,68,0.00,,CLR,0.00,VWS V14.01,2013-02-20 23:27:00,
2013-02-20 17:33:00,12.7,4.5,30.34,West,275,0.0,0.0,69,0.00,,CLR,0.00,VWS V14.01,2013-02-20 23:33:00,
2013-02-20 17:38:00,12.4,4.5,30.34,West,275,0.0,0.0,70,0.00,,CLR,0.00,VWS V14.01,2013-02-20 23:38:00,
2013-02-20 17:44:00,12.1,4.5,30.35,North,360,0.0,0.0,71,0.00,,CLR,0.00,VWS V14.01,2013-02-20 23:44:00,
2013-02-20 17:49:00,11.8,4.2,30.35,North,360,0.0,0.0,71,0.00,,CLR,0.00,VWS V14.01,2013-02-20 23:49:00,
2013-02-20 17:54:00,11.6,4.3,30.35,North,360,0.0,0.0,72,0.00,,CLR,0.00,VWS V14.01,2013-02-20 23:54:00,
2013-02-20 18:00:00,11.4,4.1,30.35,North,360,0.0,0.0,72,0.00,,CLR,0.00,VWS V14.01,2013-02-21 00:00:00,
2013-02-20 18:06:00,11.3,4.1,30.36,North,360,0.0,0.0,72,0.00,,CLR,0.00,VWS V14.01,2013-02-21 00:06:00,
2013-02-20 18:12:00,11.1,4.2,30.36,North,360,0.0,0.0,73,0.00,,CLR,0.00,VWS V14.01,2013-02-21 00:12:00,
2013-02-20 18:17:00,11.0,4.1,30.35,North,360,0.0,0.0,73,0.00,,CLR,0.00,VWS V14.01,2013-02-21 00:17:00,
2013-02-20 18:22:00,10.8,3.9,30.35,North,360,0.0,0.0,73,0.00,,CLR,0.00,VWS V14.01,2013-02-21 00:22:00,
2013-02-20 18:27:00,10.7,4.1,30.35,North,360,0.0,0.0,74,0.00,,CLR,0.00,VWS V14.01,2013-02-21 00:27:00,
2013-02-20 18:33:00,10.5,3.9,30.35,North,360,0.0,0.0,74,0.00,,CLR,0.00,VWS V14.01,2013-02-21 00:33:00,
2013-02-20 18:38:00,10.4,3.8,30.35,North,360,0.0,0.0,74,0.00,,CLR,0.00,VWS V14.01,2013-02-21 00:38:00,
2013-02-20 18:43:00,10.3,3.7,30.35,North,360,0.0,0.0,74,0.00,,CLR,0.00,VWS V14.01,2013-02-21 00:43:00,
2013-02-20 18:48:00,10.1,3.5,30.35,North,360,0.0,0.0,74,0.00,,CLR,0.00,VWS V14.01,2013-02-21 00:48:00,
2013-02-20 18:54:00,10.0,3.7,30.35,North,360,0.0,0.0,75,0.00,,CLR,0.00,VWS V14.01,2013-02-21 00:54:00,
2013-02-20 18:59:00,10.0,3.7,30.35,North,360,0.0,0.0,75,0.00,,CLR,0.00,VWS V14.01,2013-02-21 00:59:00,
2013-02-20 19:04:00,9.9,3.6,30.35,North,360,0.0,0.0,75,0.00,,CLR,0.00,VWS V14.01,2013-02-21 01:04:00,
2013-02-20 19:09:00,9.8,3.5,30.35,North,360,0.0,0.0,75,0.00,,CLR,0.00,VWS V14.01,2013-02-21 01:09:00,
2013-02-20 19:15:00,9.8,3.8,30.35,North,360,0.0,0.0,76,0.00,,CLR,0.00,VWS V14.01,2013-02-21 01:15:00,
2013-02-20 19:21:00,9.7,3.7,30.35,North,360,0.0,0.0,76,0.00,,CLR,0.00,VWS V14.01,2013-02-21 01:21:00,
2013-02-20 19:26:00,9.6,3.6,30.35,North,360,0.0,0.0,76,0.00,,CLR,0.00,VWS V14.01,2013-02-21 01:26:00,
2013-02-20 19:32:00,9.5,3.5,30.35,North,360,0.0,0.0,76,0.00,,CLR,0.00,VWS V14.01,2013-02-21 01:32:00,
2013-02-20 19:38:00,9.3,3.3,30.35,North,360,0.0,0.0,76,0.00,,CLR,0.00,VWS V14.01,2013-02-21 01:38:00,
2013-02-20 19:44:00,9.2,3.5,30.35,North,360,0.0,0.0,77,0.00,,CLR,0.00,VWS V14.01,2013-02-21 01:44:00,
2013-02-20 19:49:00,9.1,3.4,30.35,North,360,0.0,0.0,77,0.00,,CLR,0.00,VWS V14.01,2013-02-21 01:49:00,
2013-02-20 19:54:00,9.0,3.3,30.35,North,360,0.0,0.0,77,0.00,,CLR,0.00,VWS V14.01,2013-02-21 01:54:00,
2013-02-20 19:59:00,9.1,3.7,30.34,North,360,0.0,0.0,78,0.00,,CLR,0.00,VWS V14.01,2013-02-21 01:59:00,
2013-02-20 20:04:00,9.2,3.7,30.35,North,360,0.0,0.0,78,0.00,,CLR,0.00,VWS V14.01,2013-02-21 02:04:00,
2013-02-20 20:09:00,9.2,3.7,30.35,North,360,0.0,0.0,78,0.00,,CLR,0.00,VWS V14.01,2013-02-21 02:09:00,
2013-02-20 20:15:00,9.1,3.7,30.35,North,360,0.0,0.0,78,0.00,,CLR,0.00,VWS V14.01,2013-02-21 02:15:00,
2013-02-20 20:20:00,9.1,3.7,30.35,North,360,0.0,0.0,78,0.00,,CLR,0.00,VWS V14.01,2013-02-21 02:20:00,
2013-02-20 20:26:00,8.9,3.2,30.34,North,360,0.0,0.0,77,0.00,,CLR,0.00,VWS V14.01,2013-02-21 02:26:00,
2013-02-20 20:32:00,8.7,3.0,30.34,North,360,0.0,0.0,77,0.00,,CLR,0.00,VWS V14.01,2013-02-21 02:32:00,
2013-02-20 20:37:00,8.5,3.1,30.34,North,360,0.0,0.0,78,0.00,,CLR,0.00,VWS V14.01,2013-02-21 02:37:00,
2013-02-20 20:42:00,8.4,3.0,30.34,North,360,0.0,0.0,78,0.00,,CLR,0.00,VWS V14.01,2013-02-21 02:42:00,
2013-02-20 20:47:00,8.2,2.8,30.34,North,360,0.0,0.0,78,0.00,,CLR,0.00,VWS V14.01,2013-02-21 02:47:00,
2013-02-20 20:52:00,8.1,2.7,30.33,North,360,0.0,0.0,78,0.00,,CLR,0.00,VWS V14.01,2013-02-21 02:52:00,
2013-02-20 20:58:00,8.1,2.7,30.34,North,360,0.0,0.0,78,0.00,,CLR,0.00,VWS V14.01,2013-02-21 02:58:00,
2013-02-20 21:04:00,8.1,3.0,30.34,North,360,0.0,0.0,79,0.00,,CLR,0.00,VWS V14.01,2013-02-21 03:04:00,
2013-02-20 21:09:00,8.1,3.0,30.34,North,360,0.0,0.0,79,0.00,,CLR,0.00,VWS V14.01,2013-02-21 03:09:00,
2013-02-20 21:15:00,8.2,2.8,30.34,North,360,0.0,0.0,78,0.00,,CLR,0.00,VWS V14.01,2013-02-21 03:15:00,
2013-02-20 21:20:00,8.3,2.9,30.33,North,360,0.0,0.0,78,0.00,,CLR,0.00,VWS V14.01,2013-02-21 03:20:00,
2013-02-20 21:25:00,8.5,2.8,30.34,North,360,0.0,0.0,77,0.00,,CLR,0.00,VWS V14.01,2013-02-21 03:25:00,
2013-02-20 21:31:00,8.7,3.0,30.34,North,360,0.0,0.0,77,0.00,,CLR,0.00,VWS V14.01,2013-02-21 03:31:00,
2013-02-20 21:36:00,8.8,2.8,30.33,North,360,0.0,0.0,76,0.00,,CLR,0.00,VWS V14.01,2013-02-21 03:36:00,
2013-02-20 21:41:00,8.9,2.9,30.33,North,360,0.0,1.0,76,0.00,,CLR,0.00,VWS V14.01,2013-02-21 03:41:00,
2013-02-20 21:47:00,9.1,3.1,30.34,North,360,0.0,0.0,76,0.00,,CLR,0.00,VWS V14.01,2013-02-21 03:47:00,
2013-02-20 21:52:00,9.2,2.9,30.34,North,360,0.0,0.0,75,0.00,,CLR,0.00,VWS V14.01,2013-02-21 03:52:00,
2013-02-20 21:57:00,9.2,2.9,30.34,North,360,0.0,0.0,75,0.00,,CLR,0.00,VWS V14.01,2013-02-21 03:57:00,
2013-02-20 22:03:00,9.1,2.8,30.34,North,360,0.0,0.0,75,0.00,,CLR,0.00,VWS V14.01,2013-02-21 04:03:00,
2013-02-20 22:09:00,9.1,2.8,30.34,North,360,0.0,0.0,75,0.00,,CLR,0.00,VWS V14.01,2013-02-21 04:09:00,
2013-02-20 22:14:00,9.0,2.7,30.34,North,360,0.0,0.0,75,0.00,,CLR,0.00,VWS V14.01,2013-02-21 04:14:00,
2013-02-20 22:19:00,8.9,2.6,30.34,North,360,0.0,0.0,75,0.00,,CLR,0.00,VWS V14.01,2013-02-21 04:19:00,
2013-02-20 22:24:00,8.7,2.4,30.34,North,360,0.0,0.0,75,0.00,,CLR,0.00,VWS V14.01,2013-02-21 04:24:00,
2013-02-20 22:29:00,8.5,2.2,30.34,North,360,0.0,0.0,75,0.00,,CLR,0.00,VWS V14.01,2013-02-21 04:29:00,
2013-02-20 22:34:00,8.2,1.9,30.34,North,360,0.0,0.0,75,0.00,,CLR,0.00,VWS V14.01,2013-02-21 04:34:00,
2013-02-20 22:39:00,7.7,1.4,30.34,North,360,0.0,0.0,75,0.00,,CLR,0.00,VWS V14.01,2013-02-21 04:39:00,
2013-02-20 22:45:00,7.3,1.3,30.34,North,360,0.0,0.0,76,0.00,,CLR,0.00,VWS V14.01,2013-02-21 04:45:00,
2013-02-20 22:50:00,7.0,1.0,30.34,North,360,0.0,0.0,76,0.00,,CLR,0.00,VWS V14.01,2013-02-21 04:50:00,
2013-02-20 22:56:00,6.6,0.9,30.34,North,360,0.0,0.0,77,0.00,,CLR,0.00,VWS V14.01,2013-02-21 04:56:00,
2013-02-20 23:00:00,6.3,0.9,30.34,North,360,0.0,0.0,78,0.00,,CLR,0.00,VWS V14.01,2013-02-21 05:00:00,
2013-02-20 23:02:00,6.3,0.9,30.34,North,360,0.0,0.0,78,0.00,,CLR,0.00,VWS V14.01,2013-02-21 05:02:00,
2013-02-20 23:03:00,6.2,0.8,30.34,North,360,0.0,0.0,78,0.00,,CLR,0.00,VWS V14.01,2013-02-21 05:03:00,
2013-02-20 23:05:00,6.1,0.7,30.34,North,360,0.0,0.0,78,0.00,,CLR,0.00,VWS V14.01,2013-02-21 05:05:00,
2013-02-20 23:10:00,5.9,0.5,30.33,North,360,0.0,0.0,78,0.00,,CLR,0.00,VWS V14.01,2013-02-21 05:10:00,
2013-02-20 23:15:00,5.8,0.7,30.33,North,360,0.0,0.0,79,0.00,,CLR,0.00,VWS V14.01,2013-02-21 05:15:00,
2013-02-20 23:21:00,5.5,0.4,30.34,North,360,0.0,0.0,79,0.00,,CLR,0.00,VWS V14.01,2013-02-21 05:21:00,
2013-02-20 23:27:00,5.2,0.1,30.34,North,360,0.0,0.0,79,0.00,,CLR,0.00,VWS V14.01,2013-02-21 05:27:00,
2013-02-20 23:32:00,5.0,0.2,30.33,North,360,0.0,0.0,80,0.00,,CLR,0.00,VWS V14.01,2013-02-21 05:32:00,
2013-02-20 23:37:00,4.8,0.0,30.34,North,360,0.0,0.0,80,0.00,,CLR,0.00,VWS V14.01,2013-02-21 05:37:00,
2013-02-20 23:43:00,4.7,0.2,30.34,North,360,0.0,0.0,81,0.00,,CLR,0.00,VWS V14.01,2013-02-21 05:43:00,
2013-02-20 23:48:00,4.8,0.3,30.34,North,360,0.0,0.0,81,0.00,,CLR,0.00,VWS V14.01,2013-02-21 05:48:00,
2013-02-20 23:53:00,4.7,0.2,30.34,North,360,0.0,0.0,81,0.00,,CLR,0.00,VWS V14.01,2013-02-21 05:53:00,
2013-02-20 23:59:00,4.5,0.0,30.34,North,360,0.0,0.0,81,0.00,,CLR,0.00,VWS V14.01,2013-02-21 05:59:00,